When you browse on this site, cookies collect data to enhance your experience and personalize the content and advertising you see.
Visit our Privacy Policy to learn more. By continuing to use the site, you agree to this use of cookies and data.
  • In Austria
  • List of Countries
  • For 7 days
  • Water Temperature
  • Weather Map
  • News
  • Weather Widgets
  • user-avatar
    Login

    Hourly Weather Quetame

    Today, 22 September, Sunday

    Time Temperature Precipitation Wind Pressure Humidity
    00:00 +18°C° 0 mm 1 mps 638 mmHg 86%
    01:00 +18°C° 0 mm 1 mps 639 mmHg 85%
    02:00 +18°C° 0 mm 1 mps 638 mmHg 86%
    03:00 +18°C° 0 mm 1 mps 638 mmHg 86%
    04:00 +18°C° 0 mm 1 mps 638 mmHg 87%
    05:00 +19°C° 0 mm 1 mps 639 mmHg 86%
    06:00 +20°C° 0 mm 1 mps 639 mmHg 85%
    07:00 +18°C° 0 mm 0 mps 640 mmHg 83%
    08:00 +21°C° 0.1 mm 1 mps 640 mmHg 81%
    09:00 +22°C° 0.1 mm 1 mps 641 mmHg 79%
    10:00 +23°C° 0.1 mm 1 mps 641 mmHg 76%
    11:00 +24°C° 0.2 mm 1 mps 641 mmHg 73%
    12:00 +25°C° 0.2 mm 2 mps 640 mmHg 69%
    13:00 +26°C° 0.2 mm 2 mps 640 mmHg 65%
    14:00 +25°C° 0.4 mm 2 mps 639 mmHg 70%
    15:00 +25°C° 0.4 mm 2 mps 638 mmHg 74%
    16:00 +24°C° 0.4 mm 2 mps 637 mmHg 79%
    17:00 +23°C° 0.2 mm 1 mps 638 mmHg 85%
    18:00 +21°C° 0.2 mm 1 mps 638 mmHg 91%
    19:00 +19°C° 0.2 mm 1 mps 638 mmHg 96%
    20:00 +19°C° 0 mm 1 mps 638 mmHg 95%
    21:00 +18°C° 0 mm 1 mps 638 mmHg 93%
    22:00 +18°C° 0 mm 1 mps 638 mmHg 92%
    23:00 +18°C° 0 mm 1 mps 638 mmHg 90%

    Tomorrow, 23 September, Monday

    Time Temperature Precipitation Wind Pressure Humidity
    00:00 +18°C° 0 mm 1 mps 638 mmHg 88%
    01:00 +16°C° 0 mm 1 mps 638 mmHg 86%
    02:00 +18°C° 0 mm 1 mps 638 mmHg 86%
    03:00 +18°C° 0 mm 1 mps 638 mmHg 85%
    04:00 +18°C° 0 mm 1 mps 638 mmHg 85%
    05:00 +18°C° 0.1 mm 1 mps 639 mmHg 85%
    06:00 +19°C° 0.1 mm 1 mps 639 mmHg 85%
    07:00 +19°C° 0.1 mm 1 mps 640 mmHg 84%
    08:00 +22°C° 0 mm 1 mps 641 mmHg 76%
    09:00 +24°C° 0 mm 1 mps 642 mmHg 68%
    10:00 +26°C° 0 mm 2 mps 642 mmHg 60%
    11:00 +26°C° 0.4 mm 2 mps 641 mmHg 64%
    12:00 +26°C° 0.4 mm 2 mps 641 mmHg 69%
    13:00 +26°C° 0.4 mm 2 mps 640 mmHg 73%
    14:00 +25°C° 0.5 mm 2 mps 639 mmHg 77%
    15:00 +24°C° 0.5 mm 1 mps 638 mmHg 80%
    16:00 +23°C° 0.5 mm 1 mps 637 mmHg 84%
    17:00 +22°C° 0.2 mm 1 mps 637 mmHg 88%
    18:00 +20°C° 0.2 mm 1 mps 637 mmHg 91%
    19:00 +19°C° 0.2 mm 1 mps 637 mmHg 95%
    20:00 +19°C° 0 mm 1 mps 637 mmHg 93%
    21:00 +18°C° 0 mm 1 mps 638 mmHg 92%
    22:00 +18°C° 0 mm 1 mps 638 mmHg 90%
    23:00 +18°C° 0 mm 1 mps 638 mmHg 90%

    Day after tomorrow, 24 September, Tuesday

    Time Temperature Precipitation Wind Pressure Humidity
    00:00 +18°C° 0 mm 1 mps 638 mmHg 89%
    01:00 +16°C° 0 mm 1 mps 638 mmHg 88%
    02:00 +16°C° 0.1 mm 1 mps 638 mmHg 88%
    03:00 +16°C° 0.1 mm 1 mps 638 mmHg 87%
    04:00 +16°C° 0.1 mm 1 mps 638 mmHg 87%
    05:00 +18°C° 0 mm 1 mps 639 mmHg 84%
    06:00 +19°C° 0 mm 1 mps 639 mmHg 82%
    07:00 +20°C° 0 mm 1 mps 640 mmHg 79%
    08:00 +22°C° 0.1 mm 1 mps 641 mmHg 73%
    09:00 +24°C° 0.1 mm 1 mps 642 mmHg 68%
    10:00 +26°C° 0.1 mm 2 mps 642 mmHg 62%
    11:00 +25°C° 0.6 mm 2 mps 641 mmHg 70%
    12:00 +25°C° 0.6 mm 2 mps 640 mmHg 77%
    13:00 +24°C° 0.6 mm 2 mps 639 mmHg 84%
    14:00 +24°C° 1 mm 1 mps 639 mmHg 86%
    15:00 +23°C° 1 mm 1 mps 638 mmHg 88%
    16:00 +23°C° 1 mm 1 mps 638 mmHg 89%
    17:00 +22°C° 0.4 mm 1 mps 638 mmHg 91%
    18:00 +19°C° 0.4 mm 0 mps 638 mmHg 93%
    19:00 +18°C° 0.4 mm 0 mps 638 mmHg 95%
    20:00 +17°C° 0.2 mm 0 mps 638 mmHg 95%
    21:00 +19°C° 0.2 mm 1 mps 639 mmHg 95%
    22:00 +19°C° 0.2 mm 1 mps 639 mmHg 95%
    23:00 +19°C° 0.1 mm 1 mps 639 mmHg 94%

    25 September, Wednesday

    Time Temperature Precipitation Wind Pressure Humidity
    00:00 +19°C° 0.1 mm 1 mps 639 mmHg 94%
    01:00 +19°C° 0.1 mm 1 mps 639 mmHg 93%
    02:00 +19°C° 0 mm 1 mps 638 mmHg 92%
    03:00 +19°C° 0 mm 1 mps 638 mmHg 92%
    04:00 +19°C° 0 mm 1 mps 638 mmHg 91%
    05:00 +19°C° 0 mm 1 mps 639 mmHg 90%
    06:00 +18°C° 0 mm 0 mps 640 mmHg 90%
    07:00 +18°C° 0 mm 0 mps 640 mmHg 89%
    08:00 +21°C° 0.2 mm 1 mps 641 mmHg 87%
    09:00 +22°C° 0.2 mm 1 mps 641 mmHg 85%
    10:00 +23°C° 0.2 mm 1 mps 641 mmHg 84%
    11:00 +23°C° 0.7 mm 1 mps 640 mmHg 85%
    12:00 +23°C° 0.7 mm 1 mps 640 mmHg 86%
    13:00 +23°C° 0.7 mm 1 mps 639 mmHg 88%
    14:00 +23°C° 0.7 mm 1 mps 639 mmHg 89%
    15:00 +23°C° 0.7 mm 1 mps 638 mmHg 91%
    16:00 +22°C° 0.7 mm 1 mps 638 mmHg 93%
    17:00 +21°C° 0.2 mm 1 mps 638 mmHg 94%
    18:00 +20°C° 0.2 mm 1 mps 638 mmHg 95%
    19:00 +19°C° 0.2 mm 1 mps 638 mmHg 96%
    20:00 +19°C° 0 mm 1 mps 639 mmHg 95%
    21:00 +19°C° 0 mm 1 mps 639 mmHg 94%
    22:00 +19°C° 0 mm 1 mps 640 mmHg 93%
    23:00 +19°C° 0.1 mm 1 mps 639 mmHg 93%

    26 September, Thursday

    Time Temperature Precipitation Wind Pressure Humidity
    00:00 +19°C° 0.1 mm 1 mps 639 mmHg 93%
    01:00 +18°C° 0.1 mm 1 mps 638 mmHg 93%
    02:00 +19°C° 0.2 mm 1 mps 638 mmHg 93%
    03:00 +19°C° 0.2 mm 1 mps 638 mmHg 92%
    04:00 +19°C° 0.2 mm 1 mps 638 mmHg 91%
    05:00 +20°C° 0 mm 1 mps 639 mmHg 90%
    06:00 +20°C° 0 mm 1 mps 639 mmHg 88%
    07:00 +18°C° 0 mm 0 mps 640 mmHg 87%
    08:00 +22°C° 0 mm 1 mps 641 mmHg 77%
    09:00 +24°C° 0 mm 2 mps 642 mmHg 68%
    10:00 +26°C° 0 mm 2 mps 642 mmHg 59%
    11:00 +26°C° 0.2 mm 2 mps 641 mmHg 58%
    12:00 +26°C° 0.2 mm 2 mps 640 mmHg 57%
    13:00 +26°C° 0.2 mm 3 mps 640 mmHg 56%
    14:00 +26°C° 0.1 mm 2 mps 639 mmHg 59%
    15:00 +25°C° 0.1 mm 2 mps 639 mmHg 62%
    16:00 +24°C° 0.1 mm 2 mps 638 mmHg 66%
    17:00 +23°C° 0.1 mm 1 mps 638 mmHg 74%
    18:00 +21°C° 0.1 mm 1 mps 638 mmHg 83%
    19:00 +19°C° 0.1 mm 1 mps 637 mmHg 92%
    20:00 +18°C° 0 mm 1 mps 638 mmHg 87%
    21:00 +18°C° 0 mm 1 mps 638 mmHg 83%
    22:00 +17°C° 0 mm 2 mps 638 mmHg 79%
    23:00 +17°C° 0 mm 2 mps 638 mmHg 75%

    27 September, Friday

    Time Temperature Precipitation Wind Pressure Humidity
    00:00 +17°C° 0 mm 2 mps 638 mmHg 71%
    01:00 +18°C° 0 mm 1 mps 638 mmHg 66%
    02:00 +18°C° 0 mm 1 mps 638 mmHg 67%
    03:00 +18°C° 0 mm 1 mps 637 mmHg 68%
    04:00 +16°C° 0 mm 1 mps 637 mmHg 69%
    05:00 +18°C° 0 mm 1 mps 638 mmHg 67%
    06:00 +20°C° 0 mm 1 mps 639 mmHg 66%
    07:00 +21°C° 0 mm 1 mps 640 mmHg 64%
    08:00 +23°C° 0 mm 1 mps 641 mmHg 59%
    09:00 +25°C° 0 mm 2 mps 641 mmHg 55%
    10:00 +27°C° 0 mm 2 mps 642 mmHg 50%
    11:00 +27°C° 0.2 mm 2 mps 641 mmHg 56%
    12:00 +26°C° 0.2 mm 2 mps 640 mmHg 61%
    13:00 +26°C° 0.2 mm 2 mps 639 mmHg 67%
    14:00 +25°C° 0.9 mm 2 mps 639 mmHg 74%
    15:00 +24°C° 0.9 mm 2 mps 638 mmHg 82%
    16:00 +23°C° 0.9 mm 1 mps 638 mmHg 89%
    17:00 +22°C° 0.5 mm 1 mps 638 mmHg 91%
    18:00 +21°C° 0.5 mm 1 mps 637 mmHg 93%
    19:00 +20°C° 0.5 mm 1 mps 637 mmHg 96%
    20:00 +19°C° 0 mm 1 mps 638 mmHg 94%
    21:00 +19°C° 0 mm 1 mps 638 mmHg 92%
    22:00 +19°C° 0 mm 1 mps 638 mmHg 90%
    23:00 +19°C° 0 mm 1 mps 638 mmHg 89%
    Show more